{"data":{"norad_id":58662,"epoch":"2026-09-19T21:55:42.372768Z","epoch_age_seconds":65140,"freshness":"FRESH","line1":"1 58662U 23208C   26262.91368487  .00006867  00000+0  19432-3 0  9994","line2":"2 58662  97.4584  23.6757 0006298 348.8481  11.2622 15.36615825152102","mean_motion":15.36615825,"eccentricity":0.0006298,"inclination_deg":97.4584,"raan_deg":23.6757,"arg_perigee_deg":348.8481,"mean_anomaly_deg":11.2622,"bstar":0.00019432,"rev_number":15210,"period_min":93.712428088524,"perigee_km":451.82103838686,"apogee_km":460.42947512547,"semimajor_km":6834.2622567562,"source":"CELESTRAK","updated_at":"2026-09-20T09:00:33.255316Z"}}